Tracking 28052 objects as of 22-Sep-2023
HD Live streaming from Space Station
objects crossing your sky now

STARLINK-1782

Track STARLINK-1782 now!
10-day predictions
STARLINK-1782 is classified as:


NORAD ID: 47548
Int'l Code: 2021-009A
Perigee: 553.3 km
Apogee: 555.4 km
Inclination: 53.1 °
Period: 95.6 minutes
Semi major axis: 6925 km
RCS: Unknown
Launch date: February 4, 2021
Source: United States (US)
Launch site: AIR FORCE EASTERN TEST RANGE (AFETR)
Your satellite tracking list
Your tracking list is empty




NASA's NSSDC Master Catalog

Two Line Element Set (TLE):
1 47548U 21009A   23264.75294482  .00004086  00000-0  29311-3 0  9995
2 47548  53.0533  91.5913 0001530  95.3507 264.7657 15.06388791145897
Source of the keplerian elements: AFSPC